Location: Carnières
(50.1682°N, 3.3474°E)
Time: 05:39:53
(UTC+00:00)

Nadezhda 1 Rocket - Pass Details

Date: 23 May 2024
Orbit: 941 x 1004 km, 83.0° (Epoch: 19 June)

Event Time Altitude Azimuth Distance (km) Brightness Sun altitude
Rises 01:04:18 0° 350° (N) 3,744 8.1 -17.0°
Reaches altitude 10° 01:06:51 10° 351° (N) 2,791 7.3 -16.8°
Maximum altitude 01:13:18 85° 80° (E) 1,014 4.1 -16.4°
Enters shadow 01:18:19 17° 169° (S) 2,265 5.4 -16.1°
